Flag for Finland Weather past 2 weeks in Tampere, Finland

Now
61 °F

Sprinkles. Scattered clouds.


Feels Like: 61 °F
Forecast: 52 / 61 °F
Wind: 9 mph from Northeast

Location: Tampere / Pirkkala

Current Time: Sep 1, 2015 at 4:02:55 PM

Latest Report: Sep 1, 2015 at 3:20 PM


Visibility: N/A

Pressure: 29.95 "Hg

Humidity: 77%

Dew point: 54 °F

Location of TampereLocation

Historic Weather in Tampere — Graph

°F

Tampere temperature yesterday

Maximum temperature yesterday: 68 °F (at 3:50 PM)
Minimum temperature yesterday: 43 °F (at 2:20 AM)
Average temperature yesterday: 55 °F

Past Weeks' High & Low Weather Summary

 TemperatureHumidityPressure
High79 °F (Aug 23, 4:20 PM)100% (Aug 19, 5:20 AM)30.45 "Hg (Aug 19, 5:20 AM)
Low43 °F (Aug 18, 4:50 AM)24% (Aug 23, 5:20 PM)29.62 "Hg (Aug 28, 9:50 AM)
Average60 °F74%30.13 "Hg
* Reported Aug 17 3:20 PM — Sep 1 3:20 PM, Tampere, Weather by CustomWeather, © 2015

Note: Actual official high and low records may vary slightly from our data, if they occured in-between our weather recording intervals... More about our weather records

Advertising

Tampere weather history for previous 24 hours

 ConditionsComfort  
Time TempWeatherWind HumidityBarometerVisibility
3:20 PM
Tue, Sep 1
61 °FSprinkles. Scattered clouds.9 mph77%29.95 "HgN/A
2:20 PM64 °FScattered clouds.3 mph64%29.95 "HgN/A
1:50 PM66 °FPartly sunny.3 mph56%29.95 "HgN/A
1:20 PM66 °FPartly sunny.2 mph60%29.95 "HgN/A
12:50 PM64 °FPartly sunny.5 mph64%29.95 "HgN/A
12:20 PM64 °FPartly sunny.3 mph64%29.95 "HgN/A
11:50 AM64 °FPartly sunny.2 mph60%29.95 "HgN/A
11:20 AM63 °FPassing clouds.3 mph68%29.98 "Hg6 mi
10:50 AM61 °FPassing clouds.3 mph72%29.98 "HgN/A
10:20 AM59 °FSunny.5 mph77%29.98 "Hg10 mi
9:50 AM57 °FSunny.3 mph88%29.98 "Hg10 mi
9:20 AM57 °FSunny.No wind88%29.98 "Hg10 mi
8:50 AM54 °FSunny.No wind94%29.98 "Hg10 mi
8:20 AM48 °FSunny.2 mph100%29.98 "Hg10 mi
7:50 AM48 °FSunny.No wind100%29.98 "Hg10 mi
7:20 AM46 °FPassing clouds.No wind100%29.98 "HgN/A
6:20 AM45 °FClear.No wind100%29.98 "Hg10 mi
5:50 AM45 °FPassing clouds.No wind100%29.98 "HgN/A
5:20 AM45 °FPassing clouds.No wind100%30.01 "HgN/A
4:50 AM45 °FClear.No wind100%30.01 "Hg10 mi
4:20 AM45 °FClear.No wind100%30.01 "Hg10 mi
3:50 AM45 °FClear.No wind100%30.01 "Hg10 mi
3:20 AM46 °FClear.No wind93%30.01 "Hg10 mi
2:50 AM46 °FClear.No wind93%30.01 "Hg10 mi
2:20 AM46 °FClear.No wind100%30.01 "Hg10 mi
1:50 AM46 °FClear.No wind100%30.01 "Hg10 mi
1:20 AM48 °FClear.No wind94%30.04 "Hg10 mi
12:20 AM48 °FClear.No wind100%30.04 "Hg10 mi
11:50 PM
Mon, Aug 31
50 °FClear.No wind94%30.04 "Hg10 mi
11:20 PM50 °FClear.No wind94%30.01 "Hg10 mi
10:50 PM52 °FClear.2 mph94%30.01 "Hg10 mi
10:20 PM52 °FClear.2 mph94%30.04 "Hg10 mi
9:50 PM55 °FClear.2 mph88%30.04 "Hg10 mi
9:20 PM57 °FSunny.5 mph82%30.04 "Hg10 mi
8:50 PM57 °FPassing clouds.5 mph88%30.04 "HgN/A
8:20 PM59 °FSunny.2 mph82%30.04 "Hg10 mi
7:50 PM63 °FSunny.1 mph73%30.04 "Hg10 mi
7:20 PM61 °FSunny.2 mph83%30.04 "Hg10 mi
6:50 PM61 °FSunny.2 mph83%30.04 "Hg10 mi
6:20 PM63 °FSunny.2 mph68%30.04 "Hg10 mi
5:50 PM64 °FSunny.2 mph60%30.04 "Hg10 mi
5:20 PM64 °FPassing clouds.3 mph64%30.04 "HgN/A
4:50 PM64 °FPassing clouds.5 mph60%30.04 "HgN/A
4:20 PM66 °FPartly sunny.6 mph56%30.04 "HgN/A
Weather by CustomWeather, © 2015

See weather overviewHow to use our weather pages